Home   Weather   Rasht   Past weeks

Flag for Iran Past Weather in Rasht, Iran — Yesterday and Last 2 Weeks

Now
70 °F

Broken clouds.


Feels Like: 70 °F
Forecast: 64 / 74 °F
Wind: No wind

Location: Rasht Airport

Current Time: Sep 25, 2016 at 5:34:54 PM

Latest Report: Sep 25, 2016 at 5:00 PM


Visibility: N/A

Pressure: 30.01 "Hg

Humidity: 64%

Dew Point: 57 °F

Location of RashtLocation

Past Weather in Rasht — Graph

°F

Rasht Temperature Yesterday

Maximum temperature yesterday: 77 °F (at 9:30 AM)
Minimum temperature yesterday: 63 °F (at 10:30 PM)
Average temperature yesterday: 73 °F

High & Low Weather Summary for the Past Weeks

 TemperatureHumidityPressure
High86 °F (Sep 21, 1:30 PM)100% (Sep 12, 2:30 PM)30.12 "Hg (Sep 12, 2:30 PM)
Low61 °F (Sep 25, 12:30 AM)58% (Sep 22, 12:30 PM)29.62 "Hg (Sep 21, 1:30 PM)
Average74 °F84%29.87 "Hg
* Reported Sep 10 5:30 PM — Sep 25 4:30 PM, Rasht, Weather by CustomWeather, © 2016

Note: Actual official high and low records may vary slightly from our data, if they occured in-between our weather recording intervals... More about our weather records

Advertising

Rasht Weather History for the Previous 24 Hours

Scroll right to see more
 ConditionsComfort  
Time TempWeatherWind HumidityBarometerVisibility
4:30 PM
Sun, Sep 25
70 °FBroken clouds.No wind64%30.01 "HgN/A
3:30 PM70 °FBroken clouds.No wind64%30.01 "HgN/A
3:00 PM72 °FBroken clouds.No wind61%30.04 "HgN/A
2:30 PM72 °FBroken clouds.No wind61%30.04 "HgN/A
2:00 PM70 °FBroken clouds.No wind64%30.07 "HgN/A
1:30 PM70 °FBroken clouds.5 mph64%30.07 "HgN/A
1:00 PM68 °FBroken clouds.5 mph73%30.07 "Hg5 mi
12:30 PM68 °FBroken clouds.No wind73%30.07 "Hg5 mi
12:00 PM66 °FMore clouds than sun.No wind88%30.09 "HgN/A
11:30 AM66 °FMostly cloudy.5 mph88%30.09 "HgN/A
11:00 AM66 °FMostly cloudy.5 mph88%30.09 "HgN/A
10:30 AM63 °FMostly cloudy.No wind88%30.12 "HgN/A
10:00 AM61 °FMostly cloudy.7 mph94%30.12 "HgN/A
9:30 AM61 °FLight rain. Mostly cloudy.No wind94%30.12 "Hg5 mi
9:00 AM61 °FLight rain. Mostly cloudy.5 mph100%30.09 "Hg3 mi
8:30 AM61 °FBroken clouds.5 mph100%30.09 "Hg4 mi
8:00 AM63 °FFog.7 mph88%30.09 "Hg2 mi
7:30 AM63 °FBroken clouds.7 mph88%30.09 "Hg4 mi
7:00 AM61 °FBroken clouds.5 mph88%30.09 "Hg4 mi
6:30 AM61 °FPartly cloudy.5 mph88%30.09 "Hg4 mi
5:30 AM63 °FFog.5 mph94%30.07 "Hg2 mi
4:30 AM63 °FFog.9 mph94%30.07 "Hg2 mi
3:30 AM61 °FFog.No wind100%30.07 "Hg3 mi
2:30 AM61 °FLight rain. Mostly cloudy.5 mph100%30.07 "Hg2 mi
1:30 AM61 °FLight rain. Mostly cloudy.5 mph100%30.07 "Hg2 mi
12:30 AM61 °FLight rain. Mostly cloudy.7 mph100%30.07 "Hg2 mi
11:30 PM
Sat, Sep 24
63 °FLight rain. Mostly cloudy.9 mph100%30.01 "Hg1 mi
10:30 PM63 °FLight rain. Mostly cloudy.12 mph100%30.01 "Hg1 mi
9:30 PM64 °FLight rain. Mostly cloudy.16 mph100%29.98 "Hg3 mi
8:30 PM68 °FLight rain. Mostly cloudy.16 mph94%29.95 "Hg3 mi
7:30 PM68 °FRain. Overcast.14 mph100%29.89 "Hg1 mi
7:00 PM68 °FHeavy rain. Overcast.23 mph100%29.86 "Hg1 mi
6:30 PM68 °FRain. Cloudy.21 mph100%29.86 "Hg1 mi
6:00 PM70 °FLight rain. Cloudy.16 mph94%29.83 "Hg3 mi
5:30 PM70 °FRain. Cloudy.16 mph94%29.83 "Hg4 mi
5:00 PM72 °FRain. Cloudy.16 mph88%29.80 "Hg4 mi
Weather by CustomWeather, © 2016

See weather overviewHow to use our weather pages